Regional Weather Roundup
Issued by NWS Bismarck, ND

Home | Current Version | Previous Version | Text Only | Print | Product List | Glossary On
Versions: 1 2 3 4 5 6 7 8 9 10 11 12 13 14 15 16 17 18 19 20 21 22 23 24 25 26 27 28 29 30 31 32 33 34 35 36 37 38 39 40 41 42 43 44 45 46 47 48 49 50
000
ASUS43 KBIS 070102
RWRBIS

NWR BROADCAST TEXT
NATIONAL WEATHER SERVICE BISMARCK ND
800 PM CDT MON JUL 06 2015

NOTE: "FAIR" INDICATES FEW OR NO CLOUDS BELOW 12,000 FEET WITH NO
SIGNIFICANT WEATHER AND/OR OBSTRUCTIONS TO VISIBILITY.


CITY           SKY/WX    TMP DP  RH WIND       PRES   REMARKS
WILLISTON      SUNNY     70  47  43 NE9       30.16F
MINOT          SUNNY     65  45  48 N6        30.15F
MINOT AFB      NOT AVBL
BISMARCK       PTSUNNY   66  52  60 N10       30.16R HAZE
DICKINSON      SUNNY     66  52  60 NE9       30.15F HAZE
GARRISON         N/A     66  48  52 NE7       30.16S
HETTINGER ARPT SUNNY     69  51  52 N5        30.16F
JAMESTOWN      MOSUNNY   64  48  56 N13       30.12F
HAZEN          FAIR      64  50  59 N7        30.17S
OAKES            N/A     64  54  68 N15       30.11S
STANLEY        FAIR      64  45  48 N3        30.18F
$$

CITY           SKY/WX    TMP DP  RH WIND       PRES   REMARKS
GRAND FORKS    MOSUNNY   62  45  53 N13       30.12S
GRAND FORKS AF MOSUNNY   62  47  57 NE13      30.13S
DEVILS LAKE    SUNNY     64  45  48 N12       30.13S
FARGO          MOSUNNY   64  48  56 N15G23    30.10S
CAVALIER       FAIR      63  46  55 N6        30.13S
GRAFTON        FAIR      61  46  59 N8        30.14S
GWINNER        FAIR      66  48  52 N15       30.11S
LANGDON        FAIR      63  45  51 N12       30.15S
$$

CITY           SKY/WX    TMP DP  RH WIND       PRES   REMARKS
ABERDEEN       MOSUNNY   69  53  56 N13       30.09S HAZE
MOBRIDGE       SUNNY     72  53  51 N10       30.10F HAZE
BUFFALO          N/A     70  47  43 N8        30.11F
RAPID CITY     CLOUDY    68  54  60 N5        30.18S
GLASGOW        SUNNY     73  42  32 S7        30.11F
SIDNEY         SUNNY     72  48  43 NE7       30.15F
WOLF POINT     SUNNY     74  45  35 E5        30.13F
GLENDIVE       CLOUDY    72  43  35 E9        30.15F
MILES CITY     SUNNY     74  45  35 CALM      30.12F
BAKER          PTSUNNY   70  46  42 NE5       30.17F
$$

CITY           SKY/WX    TMP DP  RH WIND       PRES   REMARKS
BILLINGS       MOSUNNY   73  46  38 E9        30.13F
GREAT FALLS    SUNNY     73  48  41 NE9       30.08F
$$




USA.gov is the U.S. government's official web portal to all federal, state and local government web resources and services.